Home > Products > Valid Products > RWR

000
ASUS45 KREV 301310
RWRNV
NEVADA REGIONAL WEATHER ROUNDUP
NATIONAL WEATHER SERVICE RENO NV
600 AM PDT MON MAY 30 2016

NOTE: "FAIR" INDICATES FEW OR NO CLOUDS BELOW 12,000 FEET WITH NO
SIGNIFICANT WEATHER AND/OR OBSTRUCTIONS TO VISIBILITY.

NVZ001-003-004-301400-
WESTERN NEVADA

CITY           SKY/WX    TMP DP  RH WIND       PRES   REMARKS
RENO           PTCLDY    54  36  50 W3        30.17R
CARSON CITY    FAIR      48  36  61 SW3       30.19S
MINDEN         FAIR      37  36  93 E6        30.19S
FALLON         CLEAR     49  31  49 S3        30.11R
LOVELOCK       CLEAR     52  28  39 CALM      30.12R
HAWTHORNE      CLEAR     57  36  44 SW5       30.13R
$$

NVZ002-CAZ072-073-301400-
NORTHERN AND CENTRAL SIERRA

CITY           SKY/WX    TMP DP  RH WIND       PRES   REMARKS
S. LAKE TAHOE  CLEAR     35  31  85 S3        30.24R
TRUCKEE        FOG       32  32 100 CALM      30.25S VSB 3/4
SQUAW VLY 8000 NOT AVBL
SUSANVILLE     CLEAR     43  36  75 CALM      30.16R
MAMMOTH LAKES  FAIR      42  35  76 NW3       30.27S
BRIDGEPORT     FAIR      34  29  82 CALM      30.25R
$$

NVZ030-031-036-301400-
NORTHERN NEVADA

CITY           SKY/WX    TMP DP  RH WIND       PRES   REMARKS
ELKO           CLEAR     48  41  76 NE3       30.15R
WINNEMUCCA     PTCLDY    42  29  59 CALM      30.14R
WENDOVER       PTCLDY    55  43  62 CALM      30.10R
$$

NVZ035-037-301400-
CENTRAL NEVADA

CITY           SKY/WX    TMP DP  RH WIND       PRES   REMARKS
ELY            CLEAR     38  33  82 S12       30.18S
EUREKA           N/A     41  35  79 S6        30.16R
$$

NVZ013-014-301400-
SOUTH CENTRAL NEVADA

CITY           SKY/WX    TMP DP  RH WIND       PRES   REMARKS
TONOPAH        CLEAR     51  32  48 N10       30.13S
$$

NVZ017-020-022-301400-
SOUTHERN NEVADA

CITY           SKY/WX    TMP DP  RH WIND       PRES   REMARKS
LAS VEGAS      PTCLDY    69  23  17 S6        29.88R
N. LAS VEGAS   CLEAR     71  26  18 N8        29.90S
NELLIS AFB     CLEAR     65  24  21 NE1       29.90R
HENDERSON      CLEAR     65  24  21 S8        29.95R
MERCURY        PTCLDY    61  27  27 E7        29.98R
$$






000
ASUS45 KREV 301210
RWRNV
NEVADA REGIONAL WEATHER ROUNDUP
NATIONAL WEATHER SERVICE RENO NV
500 AM PDT MON MAY 30 2016

NOTE: "FAIR" INDICATES FEW OR NO CLOUDS BELOW 12,000 FEET WITH NO
SIGNIFICANT WEATHER AND/OR OBSTRUCTIONS TO VISIBILITY.

NVZ001-003-004-301300-
WESTERN NEVADA

CITY           SKY/WX    TMP DP  RH WIND       PRES   REMARKS
RENO           PTCLDY    55  35  47 SW3       30.16R
6HR MIN TEMP:  55; 6HR MAX TEMP:  69;

CARSON CITY    FAIR      48  36  61 NW3       30.18S
MINDEN         FAIR      39  36  87 CALM      30.18S
SLIDE MTN        N/A     43  30  61 N8          N/A
FALLON         CLEAR     53  31  42 CALM      30.10R
6HR MIN TEMP:  51; 6HR MAX TEMP:  71;

LOVELOCK       CLEAR     52  27  38 NE5       30.10S
6HR MIN TEMP:  49; 6HR MAX TEMP:  72;

HAWTHORNE      CLEAR     61  36  39 SW7       30.12R
$$

NVZ002-CAZ072-073-301300-
NORTHERN AND CENTRAL SIERRA

CITY           SKY/WX    TMP DP  RH WIND       PRES   REMARKS
S. LAKE TAHOE  CLEAR     36  32  85 CALM      30.23S
6HR MIN TEMP:  36; 6HR MAX TEMP:  47;

TRUCKEE        CLEAR     32  32 100 CALM      30.24S
SQUAW VLY 8000 NOT AVBL
SUSANVILLE     CLEAR     46  36  66 W5        30.15F
MAMMOTH LAKES  FAIR      42  35  76 N5        30.27R
6HR MIN TEMP:  42; 6HR MAX TEMP:  49;

BRIDGEPORT     FAIR      36  30  79 CALM      30.24S
$$

NVZ030-031-036-301300-
NORTHERN NEVADA

CITY           SKY/WX    TMP DP  RH WIND       PRES   REMARKS
ELKO           CLEAR     47  40  76 CALM      30.13R
6HR MIN TEMP:  45; 6HR MAX TEMP:  61;

WINNEMUCCA     CLEAR     44  29  55 CALM      30.13R
6HR MIN TEMP:  42; 6HR MAX TEMP:  67;

WENDOVER       CLEAR     54  43  66 SW3       30.09R
$$

NVZ035-037-301300-
CENTRAL NEVADA

CITY           SKY/WX    TMP DP  RH WIND       PRES   REMARKS
ELY            CLEAR     36  32  85 S7        30.18R
6HR MIN TEMP:  36; 6HR MAX TEMP:  61;

EUREKA           N/A     43  35  73 S9        30.15R
6HR MIN TEMP:  42; 6HR MAX TEMP:  57;

$$

NVZ013-014-301300-
SOUTH CENTRAL NEVADA

CITY           SKY/WX    TMP DP  RH WIND       PRES   REMARKS
TONOPAH        CLEAR     51  32  48 N15       30.13R
6HR MIN TEMP:  51; 6HR MAX TEMP:  67;

$$

NVZ017-020-022-301300-
SOUTHERN NEVADA

CITY           SKY/WX    TMP DP  RH WIND       PRES   REMARKS
LAS VEGAS      PTCLDY    70  27  20 W3        29.87R
6HR MIN TEMP:  70; 6HR MAX TEMP:  82;

N. LAS VEGAS   CLEAR     69  29  22 NW6       29.90R
6HR MIN TEMP:  67; 6HR MAX TEMP:  81;

NELLIS AFB     PTCLDY    66  23  19 CALM      29.89R
6HR MIN TEMP:  65; 6HR MAX TEMP:  83;

HENDERSON      CLEAR     67  24  19 S12       29.93R
6HR MIN TEMP:  66; 6HR MAX TEMP:  77;

MERCURY        CLEAR     61  26  26 NE3       29.96S
6HR MIN TEMP:  60; 6HR MAX TEMP:  72;

$$






000
ASUS45 KREV 301110
RWRNV
NEVADA REGIONAL WEATHER ROUNDUP
NATIONAL WEATHER SERVICE RENO NV
400 AM PDT MON MAY 30 2016

NOTE: "FAIR" INDICATES FEW OR NO CLOUDS BELOW 12,000 FEET WITH NO
SIGNIFICANT WEATHER AND/OR OBSTRUCTIONS TO VISIBILITY.

NVZ001-003-004-301200-
WESTERN NEVADA

CITY           SKY/WX    TMP DP  RH WIND       PRES   REMARKS
RENO           PTCLDY    57  35  43 SW5       30.15S
CARSON CITY    FAIR      48  36  61 CALM      30.17S
MINDEN         FAIR      41  36  81 E6        30.17S
FALLON         CLEAR     52  31  44 SE7       30.09R
LOVELOCK       CLEAR     56  28  34 E5        30.10R
HAWTHORNE      CLEAR     63  36  36 CALM      30.11R
$$

NVZ002-CAZ072-073-301200-
NORTHERN AND CENTRAL SIERRA

CITY           SKY/WX    TMP DP  RH WIND       PRES   REMARKS
S. LAKE TAHOE  CLEAR     37  33  85 CALM      30.23S
TRUCKEE        CLEAR     34  32  93 CALM      30.23S
SQUAW VLY 8000 NOT AVBL
SUSANVILLE     CLEAR     46  36  66 W6        30.16S
MAMMOTH LAKES  FAIR      44  35  71 NW5       30.25S
BRIDGEPORT     FAIR      36  30  79 CALM      30.24R
$$

NVZ030-031-036-301200-
NORTHERN NEVADA

CITY           SKY/WX    TMP DP  RH WIND       PRES   REMARKS
ELKO           CLEAR     49  41  74 CALM      30.12R
WINNEMUCCA     CLEAR     48  31  51 NW9       30.12R
WENDOVER       CLEAR     55  45  67 NE5       30.08R
$$

NVZ035-037-301200-
CENTRAL NEVADA

CITY           SKY/WX    TMP DP  RH WIND       PRES   REMARKS
ELY            CLEAR     38  34  85 S9        30.17R
EUREKA           N/A     45  35  68 S5        30.14R
$$

NVZ013-014-301200-
SOUTH CENTRAL NEVADA

CITY           SKY/WX    TMP DP  RH WIND       PRES   REMARKS
TONOPAH        CLEAR     54  33  45 N12       30.12R
$$

NVZ017-020-022-301200-
SOUTHERN NEVADA

CITY           SKY/WX    TMP DP  RH WIND       PRES   REMARKS
LAS VEGAS      PTCLDY    72  20  14 SW5       29.86R
N. LAS VEGAS   CLEAR     69  28  21 NW5       29.89S
NELLIS AFB     CLEAR     69  24  18 W5        29.88R
HENDERSON      CLEAR     67  25  20 S10       29.92F
MERCURY        CLEAR     61  25  25 NE5       29.96R
$$






000
ASUS45 KREV 300910
RWRNV
NEVADA REGIONAL WEATHER ROUNDUP
NATIONAL WEATHER SERVICE RENO NV
200 AM PDT MON MAY 30 2016

NOTE: "FAIR" INDICATES FEW OR NO CLOUDS BELOW 12,000 FEET WITH NO
SIGNIFICANT WEATHER AND/OR OBSTRUCTIONS TO VISIBILITY.

NVZ001-003-004-301000-
WESTERN NEVADA

CITY           SKY/WX    TMP DP  RH WIND       PRES   REMARKS
RENO           PTCLDY    61  34  36 SE5       30.14R
CARSON CITY    FAIR      52  34  50 CALM      30.16R
MINDEN         FAIR      41  36  81 SE3       30.15S
SLIDE MTN        N/A     45  25  45 N12         N/A
FALLON         CLEAR     61  32  33 NW9       30.07R
LOVELOCK       CLEAR     55  28  35 S8        30.07R
HAWTHORNE      PTCLDY    63  37  39 SW6       30.09R
$$

NVZ002-CAZ072-073-301000-
NORTHERN AND CENTRAL SIERRA

CITY           SKY/WX    TMP DP  RH WIND       PRES   REMARKS
S. LAKE TAHOE  CLEAR     40  34  79 CALM      30.22S
TRUCKEE        CLEAR     37  34  87 CALM      30.23S
SQUAW VLY 8000 NOT AVBL
SUSANVILLE     CLEAR     48  39  71 CALM      30.15R
MAMMOTH LAKES  FAIR      44  35  72 N5        30.25S
BRIDGEPORT     FAIR      41  31  67 CALM      30.23S
$$

NVZ030-031-036-301000-
NORTHERN NEVADA

CITY           SKY/WX    TMP DP  RH WIND       PRES   REMARKS
ELKO           CLEAR     53  41  63 E7        30.10R
WINNEMUCCA     CLEAR     49  32  52 NW9       30.09S
WENDOVER       PTCLDY    57  46  67 NW5       30.08S
$$

NVZ035-037-301000-
CENTRAL NEVADA

CITY           SKY/WX    TMP DP  RH WIND       PRES   REMARKS
ELY            PTCLDY    45  37  73 S10       30.15S
EUREKA           N/A     45  36  70 S6        30.12S
$$

NVZ013-014-301000-
SOUTH CENTRAL NEVADA

CITY           SKY/WX    TMP DP  RH WIND       PRES   REMARKS
TONOPAH        CLOUDY    59  33  37 N9        30.11S
$$

NVZ017-020-022-301000-
SOUTHERN NEVADA

CITY           SKY/WX    TMP DP  RH WIND       PRES   REMARKS
LAS VEGAS      CLEAR     77  20  12 CALM      29.86R
N. LAS VEGAS   CLEAR     73  26  17 N5        29.89F
NELLIS AFB     CLEAR     69  25  19 E9        29.87F
HENDERSON      CLEAR     72  23  16 S7        29.93S
MERCURY        PTCLDY    66  25  21 SE3       29.95S
$$






000
ASUS45 KREV 300710
RWRNV
NEVADA REGIONAL WEATHER ROUNDUP
NATIONAL WEATHER SERVICE RENO NV
1200 AM PDT MON MAY 30 2016

NOTE: "FAIR" INDICATES FEW OR NO CLOUDS BELOW 12,000 FEET WITH NO
SIGNIFICANT WEATHER AND/OR OBSTRUCTIONS TO VISIBILITY.

NVZ001-003-004-300800-
WESTERN NEVADA

CITY           SKY/WX    TMP DP  RH WIND       PRES   REMARKS
RENO           PTCLDY    66  33  29 W5        30.11R
CARSON CITY    FAIR      57  32  38 CALM      30.13S
MINDEN         FAIR      50  37  62 SE8       30.14R
SLIDE MTN        N/A     48  21  34 N8          N/A
FALLON         MOCLDY    63  30  28 NE8       30.05R
LOVELOCK       CLEAR     70  29  21 N12       30.04R
HAWTHORNE      PTCLDY    70  39  32 CALM      30.07R
$$

NVZ002-CAZ072-073-300800-
NORTHERN AND CENTRAL SIERRA

CITY           SKY/WX    TMP DP  RH WIND       PRES   REMARKS
S. LAKE TAHOE  CLEAR     44  36  73 CALM      30.21S
TRUCKEE        CLEAR     39  34  81 CALM      30.22R
SQUAW VLY 8000 NOT AVBL
SUSANVILLE     CLEAR     55  36  47 NW3       30.13R
MAMMOTH LAKES  FAIR      46  37  68 W6        30.25R
BRIDGEPORT     FAIR      46  33  60 CALM      30.22R
$$

NVZ030-031-036-300800-
NORTHERN NEVADA

CITY           SKY/WX    TMP DP  RH WIND       PRES   REMARKS
ELKO           CLEAR     57  41  55 NE5       30.07R
WINNEMUCCA     CLEAR     62  32  32 N6        30.08R
WENDOVER       CLOUDY    61  48  63 SE7       30.08S
$$

NVZ035-037-300800-
CENTRAL NEVADA

CITY           SKY/WX    TMP DP  RH WIND       PRES   REMARKS
ELY            CLOUDY    57  35  43 W8        30.14F
EUREKA           N/A     52  37  56 S7        30.11S
$$

NVZ013-014-300800-
SOUTH CENTRAL NEVADA

CITY           SKY/WX    TMP DP  RH WIND       PRES   REMARKS
TONOPAH        MOCLDY    63  34  33 NW5       30.10S
$$

NVZ017-020-022-300800-
SOUTHERN NEVADA

CITY           SKY/WX    TMP DP  RH WIND       PRES   REMARKS
LAS VEGAS      CLEAR     81  17   9 S8        29.85S
N. LAS VEGAS   CLEAR     78  20  11 S6        29.88S
NELLIS AFB     CLEAR     79  24  13 SE5       29.87R
HENDERSON      CLEAR     73  22  14 S9        29.93R
MERCURY        PTCLDY    69  24  18 NE5       29.95S
$$






000
ASUS45 KREV 300610
RWRNV
NEVADA REGIONAL WEATHER ROUNDUP
NATIONAL WEATHER SERVICE RENO NV
1100 PM PDT SUN MAY 29 2016

NOTE: "FAIR" INDICATES FEW OR NO CLOUDS BELOW 12,000 FEET WITH NO
SIGNIFICANT WEATHER AND/OR OBSTRUCTIONS TO VISIBILITY.

NVZ001-003-004-300700-
WESTERN NEVADA

CITY           SKY/WX    TMP DP  RH WIND       PRES   REMARKS
RENO           PTCLDY    69  32  25 N8        30.10R
6HR MIN TEMP:  68; 6HR MAX TEMP:  84;

CARSON CITY    FAIR      59  34  38 E3        30.13R
MINDEN         FAIR      54  39  58 SE7       30.13R
SLIDE MTN        N/A     46  19  34 NW7         N/A
FALLON         PTCLDY    71  29  21 W12       30.03R
6HR MIN TEMP:  71; 6HR MAX TEMP:  85;

LOVELOCK       CLEAR     70  31  23 N9        30.03R
6HR MIN TEMP:  70; 6HR MAX TEMP:  86;

HAWTHORNE      PTCLDY    73  39  29 N12       30.05R
$$

NVZ002-CAZ072-073-300700-
NORTHERN AND CENTRAL SIERRA

CITY           SKY/WX    TMP DP  RH WIND       PRES   REMARKS
S. LAKE TAHOE  CLEAR     47  37  68 CALM      30.21S
6HR MIN TEMP:  46; 6HR MAX TEMP:  69;

TRUCKEE        CLEAR     43  36  75 CALM      30.21R
SQUAW VLY 8000 NOT AVBL
SUSANVILLE     CLEAR     61  37  41 W8        30.11R
MAMMOTH LAKES  FAIR      49  37  64 W8        30.24S
6HR MIN TEMP:  49; 6HR MAX TEMP:  68;

BRIDGEPORT     FAIR      48  34  58 NW3       30.21R
$$

NVZ030-031-036-300700-
NORTHERN NEVADA

CITY           SKY/WX    TMP DP  RH WIND       PRES   REMARKS
ELKO           CLEAR     60  43  53 E3        30.06R
6HR MIN TEMP:  59; 6HR MAX TEMP:  77;

WINNEMUCCA     CLEAR     59  30  33 CALM      30.07R
6HR MIN TEMP:  55; 6HR MAX TEMP:  82;

WENDOVER       CLOUDY    63  41  45 E6        30.06F
$$

NVZ035-037-300700-
CENTRAL NEVADA

CITY           SKY/WX    TMP DP  RH WIND       PRES   REMARKS
ELY            CLOUDY    54  38  54 N6        30.18S
6HR MIN TEMP:  53; 6HR MAX TEMP:  67;

EUREKA           N/A     57  38  48 S10       30.11S
6HR MIN TEMP:  57; 6HR MAX TEMP:  74;

$$

NVZ013-014-300700-
SOUTH CENTRAL NEVADA

CITY           SKY/WX    TMP DP  RH WIND       PRES   REMARKS
TONOPAH        MOCLDY    67  33  28 E6        30.10S
6HR MIN TEMP:  66; 6HR MAX TEMP:  79; 6HR PCP: TRACE;

$$

NVZ017-020-022-300700-
SOUTHERN NEVADA

CITY           SKY/WX    TMP DP  RH WIND       PRES   REMARKS
LAS VEGAS      CLEAR     81  18   9 S7        29.85R
6HR MIN TEMP:  81; 6HR MAX TEMP:  91;

N. LAS VEGAS   CLEAR     81  20  10 SW5       29.88R
6HR MIN TEMP:  81; 6HR MAX TEMP:  91;

NELLIS AFB     CLEAR     82  23  11 NW2       29.86R
6HR MIN TEMP:  82; 6HR MAX TEMP:  92;

HENDERSON      CLEAR     77  22  13 S10       29.92S
6HR MIN TEMP:  77; 6HR MAX TEMP:  90;

MERCURY        PTCLDY    72  24  16 CALM      29.95R
6HR MIN TEMP:  70; 6HR MAX TEMP:  87;

$$






000
ASUS45 KREV 300510
RWRNV
NEVADA REGIONAL WEATHER ROUNDUP
NATIONAL WEATHER SERVICE RENO NV
1000 PM PDT SUN MAY 29 2016

NOTE: "FAIR" INDICATES FEW OR NO CLOUDS BELOW 12,000 FEET WITH NO
SIGNIFICANT WEATHER AND/OR OBSTRUCTIONS TO VISIBILITY.

NVZ001-003-004-300600-
WESTERN NEVADA

CITY           SKY/WX    TMP DP  RH WIND       PRES   REMARKS
RENO           MOCLDY    70  34  26 NW9       30.09R
CARSON CITY    FAIR      68  32  26 NW7       30.11R
MINDEN         FAIR      61  37  41 SE7       30.11R
SLIDE MTN        N/A     45  23  42 W13         N/A
FALLON         CLEAR     73  29  19 NW12      30.01R
LOVELOCK       CLEAR     71  29  21 NW8       30.01R
HAWTHORNE      CLEAR     75  36  23 NW8       30.02R
$$

NVZ002-CAZ072-073-300600-
NORTHERN AND CENTRAL SIERRA

CITY           SKY/WX    TMP DP  RH WIND       PRES   REMARKS
S. LAKE TAHOE  CLEAR     49  37  63 CALM      30.21R
TRUCKEE        CLEAR     46  36  66 CALM      30.20R
SQUAW VLY 8000 NOT AVBL
SUSANVILLE     CLEAR     63  37  39 W7        30.09R
MAMMOTH LAKES  FAIR      51  38  63 W7        30.24R
BRIDGEPORT     FAIR      51  35  54 CALM      30.20R
$$

NVZ030-031-036-300600-
NORTHERN NEVADA

CITY           SKY/WX    TMP DP  RH WIND       PRES   REMARKS
ELKO           MOCLDY    62  44  51 S3        30.05R
WINNEMUCCA     CLEAR     59  29  31 W5        30.05R
WENDOVER       CLOUDY    63  43  48 NW15G32   30.08R
$$

NVZ035-037-300600-
CENTRAL NEVADA

CITY           SKY/WX    TMP DP  RH WIND       PRES   REMARKS
ELY            CLOUDY    55  37  50 VRB3      30.18R
EUREKA           N/A     60  38  43 SE12      30.11R
$$

NVZ013-014-300600-
SOUTH CENTRAL NEVADA

CITY           SKY/WX    TMP DP  RH WIND       PRES   REMARKS
TONOPAH        CLOUDY    68  32  26 SE3       30.10R
$$

NVZ017-020-022-300600-
SOUTHERN NEVADA

CITY           SKY/WX    TMP DP  RH WIND       PRES   REMARKS
LAS VEGAS      CLEAR     83  15   8 S7        29.84R
N. LAS VEGAS   CLEAR     83  20   9 S8        29.87R
NELLIS AFB     CLEAR     84  22  10 S12       29.85R
HENDERSON      CLEAR     78  23  13 S13       29.92R
MERCURY        PTCLDY    70  24  17 E5        29.93R
$$






000
ASUS45 KREV 292010
RWRNV
NEVADA REGIONAL WEATHER ROUNDUP
NATIONAL WEATHER SERVICE RENO NV
100 PM PDT SUN MAY 29 2016

NOTE: "FAIR" INDICATES FEW OR NO CLOUDS BELOW 12,000 FEET WITH NO
SIGNIFICANT WEATHER AND/OR OBSTRUCTIONS TO VISIBILITY.

NVZ001-003-004-292100-
WESTERN NEVADA

CITY           SKY/WX    TMP DP  RH WIND       PRES   REMARKS
RENO           MOSUNNY   79  35  20 CALM      30.04F
CARSON CITY    FAIR      77  32  19 SW5       30.07F
MINDEN         FAIR      75  34  22 SW6       30.07F
SLIDE MTN        N/A     52  32  46 SW13        N/A
FALLON         MOSUNNY   80  32  17 VRB5      30.02F
LOVELOCK       SUNNY     80  32  17 SW5       30.02F
HAWTHORNE      SUNNY     79  34  19 NW6       30.04F
$$

NVZ002-CAZ072-073-292100-
NORTHERN AND CENTRAL SIERRA

CITY           SKY/WX    TMP DP  RH WIND       PRES   REMARKS
S. LAKE TAHOE  SUNNY     67  38  34 NE9       30.15S
TRUCKEE        MOSUNNY   72  34  25 W9        30.14S
SQUAW VLY 8000 NOT AVBL
SUSANVILLE     SUNNY     79  34  19 SW10      30.05F
MAMMOTH LAKES  FAIR      68  27  21 SE12G17   30.19F
BRIDGEPORT     PTSUNNY   68  22  17 VRB5      30.14F
$$

NVZ030-031-036-292100-
NORTHERN NEVADA

CITY           SKY/WX    TMP DP  RH WIND       PRES   REMARKS
ELKO           SUNNY     74  41  30 SW10      30.07F
WINNEMUCCA     PTSUNNY   76  31  19 W9        30.02F
WENDOVER       MOSUNNY   73  39  29 SE9       30.04F
$$

NVZ035-037-292100-
CENTRAL NEVADA

CITY           SKY/WX    TMP DP  RH WIND       PRES   REMARKS
ELY            LGT RAIN  67  29  24 VRB6G23   30.16S
EUREKA           N/A     67  36  31 W20G30    30.12R
$$

NVZ013-014-292100-
SOUTH CENTRAL NEVADA

CITY           SKY/WX    TMP DP  RH WIND       PRES   REMARKS
TONOPAH        MOSUNNY   77  26  15 VRB3      30.09F
$$

NVZ017-020-022-292100-
SOUTHERN NEVADA

CITY           SKY/WX    TMP DP  RH WIND       PRES   REMARKS
LAS VEGAS      MOSUNNY   90  27  10 VRB5      29.88F
N. LAS VEGAS   SUNNY     88  29  12 VRB3      29.91F
NELLIS AFB     SUNNY     89  30  12 VRB3      29.89F
HENDERSON      SUNNY     89  32  13 VRB5      29.94F
MERCURY        SUNNY     85  26  11 VRB6      29.95F
$$






000
ASUS45 KREV 291910
RWRNV
NEVADA REGIONAL WEATHER ROUNDUP
NATIONAL WEATHER SERVICE RENO NV
1200 PM PDT SUN MAY 29 2016

NOTE: "FAIR" INDICATES FEW OR NO CLOUDS BELOW 12,000 FEET WITH NO
SIGNIFICANT WEATHER AND/OR OBSTRUCTIONS TO VISIBILITY.

NVZ001-003-004-292000-
WESTERN NEVADA

CITY           SKY/WX    TMP DP  RH WIND       PRES   REMARKS
RENO           MOSUNNY   77  36  22 VRB3      30.06F
CARSON CITY    FAIR      73  32  21 S3        30.09F
MINDEN         FAIR      72  39  30 CALM      30.09F
SLIDE MTN        N/A     50  30  46 SW10        N/A
FALLON         MOSUNNY   78  33  19 W7        30.04F
LOVELOCK       SUNNY     78  35  21 MISG      30.04F
HAWTHORNE      SUNNY     75  37  25 CALM      30.06F
$$

NVZ002-CAZ072-073-292000-
NORTHERN AND CENTRAL SIERRA

CITY           SKY/WX    TMP DP  RH WIND       PRES   REMARKS
S. LAKE TAHOE  SUNNY     65  38  36 NE9       30.15F
TRUCKEE        MOSUNNY   68  37  32 S3        30.14F
SQUAW VLY 8000 NOT AVBL
SUSANVILLE     SUNNY     73  37  27 NE5       30.06F
MAMMOTH LAKES  FAIR      67  28  23 SE6       30.20F
BRIDGEPORT     FAIR      67  24  19 S5        30.15R
$$

NVZ030-031-036-292000-
NORTHERN NEVADA

CITY           SKY/WX    TMP DP  RH WIND       PRES   REMARKS
ELKO           SUNNY     71  38  29 SW9       30.09F
WINNEMUCCA     PTSUNNY   76  33  21 NE10      30.04F
WENDOVER       SUNNY     73  37  27 SE7       30.07F
$$

NVZ035-037-292000-
CENTRAL NEVADA

CITY           SKY/WX    TMP DP  RH WIND       PRES   REMARKS
ELY            PTSUNNY   65  32  29 S16G23    30.16R
EUREKA           N/A     69  33  26 CALM      30.11F
$$

NVZ013-014-292000-
SOUTH CENTRAL NEVADA

CITY           SKY/WX    TMP DP  RH WIND       PRES   REMARKS
TONOPAH        MOSUNNY   74  27  17 VRB6      30.11F
$$

NVZ017-020-022-292000-
SOUTHERN NEVADA

CITY           SKY/WX    TMP DP  RH WIND       PRES   REMARKS
LAS VEGAS      MOSUNNY   89  27  10 N5        29.90F
N. LAS VEGAS   SUNNY     87  29  12 SE7       29.93F
NELLIS AFB     SUNNY     87  29  12 VRB5      29.91F
HENDERSON      SUNNY     87  33  14 VRB7      29.96F
MERCURY        SUNNY     85  27  12 VRB5      29.97F
$$






000
ASUS45 KREV 291710
RWRNV
NEVADA REGIONAL WEATHER ROUNDUP
NATIONAL WEATHER SERVICE RENO NV
1000 AM PDT SUN MAY 29 2016

NOTE: "FAIR" INDICATES FEW OR NO CLOUDS BELOW 12,000 FEET WITH NO
SIGNIFICANT WEATHER AND/OR OBSTRUCTIONS TO VISIBILITY.

NVZ001-003-004-291800-
WESTERN NEVADA

CITY           SKY/WX    TMP DP  RH WIND       PRES   REMARKS
RENO           MOSUNNY   68  38  33 CALM      30.09F
CARSON CITY    FAIR      66  39  37 CALM      30.12S
MINDEN         FAIR      63  39  42 CALM      30.12S
SLIDE MTN        N/A     50  32  50 SW1         N/A
FALLON         SUNNY     71  37  28 VRB3      30.06F
LOVELOCK       SUNNY     73  36  25 CALM      30.06S
HAWTHORNE      SUNNY     70  37  30 CALM      30.09F
$$

NVZ002-CAZ072-073-291800-
NORTHERN AND CENTRAL SIERRA

CITY           SKY/WX    TMP DP  RH WIND       PRES   REMARKS
S. LAKE TAHOE  SUNNY     61  41  47 VRB3      30.16F
TRUCKEE        SUNNY     59  43  55 CALM      30.16F
SQUAW VLY 8000 NOT AVBL
SUSANVILLE     SUNNY     68  36  30 CALM      30.08F
MAMMOTH LAKES  FAIR      61  37  40 E3        30.21F
BRIDGEPORT     FAIR      60  29  30 CALM      30.16F
$$

NVZ030-031-036-291800-
NORTHERN NEVADA

CITY           SKY/WX    TMP DP  RH WIND       PRES   REMARKS
ELKO           MOSUNNY   66  43  43 CALM      30.12F
WINNEMUCCA     SUNNY     69  35  28 VRB3      30.07F
WENDOVER       SUNNY     66  39  37 SE6       30.10S
$$

NVZ035-037-291800-
CENTRAL NEVADA

CITY           SKY/WX    TMP DP  RH WIND       PRES   REMARKS
ELY            CLOUDY    64  38  38 SE3       30.16F
EUREKA           N/A     65  41  41 CALM      30.14S
$$

NVZ013-014-291800-
SOUTH CENTRAL NEVADA

CITY           SKY/WX    TMP DP  RH WIND       PRES   REMARKS
TONOPAH        SUNNY     69  35  28 SE9       30.13F
$$

NVZ017-020-022-291800-
SOUTHERN NEVADA

CITY           SKY/WX    TMP DP  RH WIND       PRES   REMARKS
LAS VEGAS      MOSUNNY   83  27  13 E6        29.92S
N. LAS VEGAS   SUNNY     82  27  13 VRB3      29.95S
NELLIS AFB     SUNNY     83  31  15 VRB5      29.94R
HENDERSON      SUNNY     82  31  15 NE6       29.98S
MERCURY        SUNNY     80  28  15 NE6       29.99F
$$






    US Dept of Commerce
    National Oceanic and Atmospheric Administration
    National Weather Service
    1325 East West Highway
    Silver Spring, MD 20910
    Page Author: NWS Internet Services Team
Disclaimer
Information Quality
Credits
Glossary
Privacy Policy
Freedom of Information Act (FOIA)
About Us
Career Opportunities